Change the Weather History Date:

Sunday, June 30, 2013

  Actual Average Record
Temperature  
Mean Temperature 55 °F -  
Max Temperature 62 °F 73 °F 89 °F (2012)
Min Temperature 48 °F 53 °F 39 °F (2000)
Degree Days  
Heating Degree Days 10    
Growing Degree Days 5 (Base 50)    
Moisture  
Dew Point 49 °F    
Average Humidity 80    
Maximum Humidity 100    
Minimum Humidity 48    
Precipitation  
Precipitation 0.00 in - - ()
Sea Level Pressure  
Sea Level Pressure 30.07 in    
Wind  
Wind Speed 6 mph ()    
Max Wind Speed 16 mph    
Max Gust Speed -    
Visibility 5.9 miles    
Events Fog , Rain    
Averages and records for this station are not official NWS values.
T = Trace of Precipitation, MM = Missing Value Source: Averaged Metar Reports

Daily Weather History Graph

Daily Weather History Graph

Search for Another Location

Airport or City:

Trip Planner

Search our weather history database for the weather conditions in past years. The results will help you decide how hot, cold, wet, or windy it might be!

Date:

Astronomy

Jun. 30, 2013 Rise Set
Actual Time 4:35 AM CEST 8:58 PM CEST
Civil Twilight 3:50 AM CEST 9:43 PM CEST
Nautical Twilight 2:43 AM CEST 10:50 PM CEST
Astronomical Twilight 1:19 AM CEST 12:15 AM CEST
Moon No Moon Rise 1:24 PM CEST (6/30)
Length of Visible Light 17h 53m
Length of Day
16h 23m
Waning Gibbous, 48% of the Moon is Illuminated
Jun 30
Waning Gibbous
Jul 8
New
Jul 16
First Quarter
Jul 22
Full
Jul 29
Last Quarter

Hourly Weather History & Observations

Time (CEST) Temp. Dew Point Humidity Pressure Visibility Wind Dir Wind Speed Gust Speed Precip Events Conditions
12:00 AM 53.6 °F 51.8 °F 94% 30.01 in - Variable 1.2 mph - N/A   Clear
12:30 AM 53.6 °F 51.8 °F 94% 30.01 in - Calm Calm - N/A   Clear
1:00 AM 51.8 °F 50.0 °F 94% 30.04 in - Variable 1.2 mph - N/A   Clear
1:30 AM 53.6 °F 51.8 °F 94% 30.04 in - Calm Calm - N/A   Clear
2:00 AM 55.4 °F 51.8 °F 88% 30.04 in - Variable 1.2 mph - N/A   Clear
2:30 AM 53.6 °F 51.8 °F 94% 30.04 in - West 3.5 mph - N/A   Clear
3:00 AM 51.8 °F 50.0 °F 94% 30.04 in - West 4.6 mph - N/A   Clear
3:30 AM 51.8 °F 50.0 °F 94% 30.01 in - West 2.3 mph - N/A   Clear
4:00 AM 53.6 °F 51.8 °F 94% 30.01 in 6.2 mi Variable 1.2 mph - N/A Fog Shallow Fog
4:30 AM 50.0 °F 48.2 °F 94% 30.04 in 1.2 mi West 5.8 mph - N/A Fog Shallow Fog
5:00 AM 48.2 °F 48.2 °F 100% 30.01 in 3.7 mi West 5.8 mph - N/A   Unknown
5:30 AM 51.8 °F 50.0 °F 94% 30.04 in 5.0 mi Variable 2.3 mph - N/A   Unknown
6:00 AM 51.8 °F 50.0 °F 94% 30.04 in 5.0 mi WSW 5.8 mph - N/A   Unknown
6:30 AM 53.6 °F 51.8 °F 94% 30.04 in 5.0 mi West 5.8 mph - N/A   Unknown
7:00 AM 55.4 °F 53.6 °F 94% 30.04 in - West 6.9 mph - N/A   Clear
7:30 AM 57.2 °F 53.6 °F 88% 30.04 in 6.2 mi WNW 10.4 mph - N/A   Mostly Cloudy
8:00 AM 55.4 °F 53.6 °F 94% 30.04 in 6.2 mi WNW 11.5 mph - N/A   Mostly Cloudy
8:30 AM 57.2 °F 53.6 °F 88% 30.06 in 6.2 mi West 12.7 mph - N/A   Mostly Cloudy
9:00 AM 55.4 °F 53.6 °F 94% 30.06 in 6.2 mi West 11.5 mph - N/A   Mostly Cloudy
9:30 AM 55.4 °F 51.8 °F 88% 30.06 in 6.2 mi WNW 13.8 mph - N/A   Mostly Cloudy
10:00 AM 55.4 °F 51.8 °F 88% 30.06 in 6.2 mi WNW 13.8 mph - N/A   Partly Cloudy
10:30 AM 53.6 °F 51.8 °F 94% 30.09 in 6.2 mi NW 10.4 mph - N/A   Scattered Clouds
11:00 AM 55.4 °F 51.8 °F 88% 30.09 in 6.2 mi NW 12.7 mph - N/A Rain Light Rain Showers
11:30 AM 53.6 °F 51.8 °F 94% 30.09 in 6.2 mi NW 12.7 mph - N/A Rain Light Rain Showers
12:00 PM 55.4 °F 51.8 °F 88% 30.09 in 6.2 mi WNW 10.4 mph - N/A   Mostly Cloudy
12:30 PM 57.2 °F 50.0 °F 77% 30.09 in 6.2 mi WNW 13.8 mph - N/A   Mostly Cloudy
1:00 PM 57.2 °F 50.0 °F 77% 30.09 in 6.2 mi WNW 11.5 mph - N/A   Mostly Cloudy
1:30 PM 57.2 °F 48.2 °F 72% 30.09 in 6.2 mi WNW 16.1 mph - N/A   Mostly Cloudy
2:00 PM 57.2 °F 46.4 °F 67% 30.09 in 6.2 mi WNW 13.8 mph - N/A   Mostly Cloudy
2:30 PM 59.0 °F 46.4 °F 63% 30.09 in 6.2 mi West 13.8 mph - N/A   Mostly Cloudy
3:00 PM 59.0 °F 48.2 °F 67% 30.09 in 6.2 mi West 13.8 mph - N/A   Mostly Cloudy
3:30 PM 57.2 °F 46.4 °F 67% 30.09 in 6.2 mi WNW 11.5 mph - N/A   Mostly Cloudy
4:00 PM 59.0 °F 48.2 °F 67% 30.09 in 6.2 mi West 11.5 mph - N/A   Mostly Cloudy
4:30 PM 59.0 °F 46.4 °F 63% 30.09 in 6.2 mi West 12.7 mph - N/A   Mostly Cloudy
5:00 PM 59.0 °F 44.6 °F 59% 30.09 in 6.2 mi West 12.7 mph - N/A   Mostly Cloudy
5:30 PM 62.6 °F 42.8 °F 48% 30.09 in 6.2 mi WNW 10.4 mph - N/A   Mostly Cloudy
6:00 PM 59.0 °F 44.6 °F 59% 30.09 in 6.2 mi NNW 13.8 mph - N/A   Scattered Clouds
6:30 PM 59.0 °F 41.0 °F 51% 30.09 in 6.2 mi NW 11.5 mph - N/A   Partly Cloudy
7:00 PM 59.0 °F 42.8 °F 55% 30.09 in 6.2 mi NW 10.4 mph - N/A   Partly Cloudy
7:30 PM 57.2 °F 42.8 °F 59% 30.09 in 6.2 mi NW 9.2 mph - N/A   Partly Cloudy
8:00 PM 55.4 °F 44.6 °F 67% 30.09 in 6.2 mi NW 4.6 mph - N/A   Partly Cloudy
8:30 PM 55.4 °F 42.8 °F 63% 30.09 in 6.2 mi WNW 5.8 mph - N/A   Partly Cloudy
9:00 PM 55.4 °F 44.6 °F 67% 30.09 in 6.2 mi WNW 6.9 mph - N/A   Partly Cloudy
9:30 PM 53.6 °F 44.6 °F 72% 30.12 in 6.2 mi WNW 6.9 mph - N/A   Partly Cloudy
10:00 PM 53.6 °F 44.6 °F 72% 30.12 in 6.2 mi West 5.8 mph - N/A   Partly Cloudy
10:30 PM 51.8 °F 44.6 °F 76% 30.12 in 6.2 mi West 4.6 mph - N/A   Partly Cloudy
11:00 PM 50.0 °F 44.6 °F 82% 30.12 in 6.2 mi West 4.6 mph - N/A   Partly Cloudy
11:30 PM 53.6 °F 42.8 °F 67% 30.12 in - WSW 3.5 mph - N/A   Clear